CZ-4 DEB

Satellite information

Favourite Embed

Satellite Type and Status

DEBRISIN ORBIT

Key statistics

Satellite CZ-4 DEB at a glance.

Uptime

12667

Days in orbit

Revolutions

≈ 14.1

Per day

Orbit

SSO

Sun Synchronous Orbit

Inclination

99.0

Latest

Satellite identification and parameters

Extended collection of information and parameters for CZ-4 DEB.

Object identification

Identified? True

Debris? True

Object name: CZ-4 DEB

International designator: 1990-081DA

Object number (NORAD): 37614

Object ID (CCSDS): 37614

Country: PEOPLES REPUBLIC OF CHINA (PRC)

Current information (Y/N): Y

RCS size: SMALL

Orbital parameters

Period: 102.434 minutes

Inclination: 98.9511 deg

SMA: 7251.991 km

Apoapsis: 927.946 km

Periapsis: 819.765 km

RAAN: 88.6311 deg

Eccentricy: 0.0074587

Argument of periapsis: 9.6278 deg

Mean anomaly: 1.7919 deg

Mean motion: 14.05778572 rev/day

Mean motion (dot): 0.00000749 rev/day2

B* drag term: 0.00047401 1/REarth

Two-line elements (TLE)

Creation date: April 25, 2025, 1:46 a.m.

Reference frame: TEME

Reference center: EARTH

Epoch: April 14, 2025, 5:35 a.m. UTC

TLE line 0: 0 CZ-4 DEB

TLE line 1: 1 37614U 90081DA 25104.23295432 .00000749 00000-0 47401-3 0 9990

TLE line 2: 2 37614 98.9511 88.6311 0074587 9.6278 1.7919 14.05778572 56606

Live tracking on map

Real-time ground track for satellite CZ-4 DEB.

In-orbit conjunctions

A list of the most updated potential collisions computed for object CZ-4 DEB.

Target Orbit TCA Probability of collision Miss distance Type
COSMOS 1275 DEB LEO 2025-02-05 07:45:15 0.0001097524 141.0 (m) DEBRIS
CZ-6A DEB LEO 2025-02-03 14:24:03 0.0005642867 375.0 (m) DEBRIS
METEOR 2-17 DEB LEO 2024-09-28 17:18:05 0.0001244935 246.0 (m) DEBRIS

Associated space launch

Chinese polar orbiting meteorological satellite

CZ-4 DEB was lifted into orbit during the mission ‘Long March 4A | Feng Yun 1B’, on board a Long March 4A space rocket.

The launch took place on Sept. 3, 1990, 12:53 a.m. from Launch Complex 7.

For more information about the launch, click the button.

Launch to space Long March 4A | Feng Yun 1B
Long March 4A | Feng Yun 1B

Agency: N/A

Status: Launch Successful

Launch date: Sept. 3, 1990, 12:53 a.m. UTC

Rocket: Long March 4A

Launch pad: Launch Complex 7

Location: Taiyuan Satellite Launch Center, People's Republic of China

...

Latest news about this satellite

There are no fresh news available about this satellite. Check back as we update our databases every day.


Newsletter sign-up

Weekly statistics, charts and insights to help you stay on top of the space industry.